When you browse on this site, cookies collect data to enhance your experience and personalize the content and advertising you see.
Visit our Privacy Policy to learn more. By continuing to use the site, you agree to this use of cookies and data.
  • In Hungary
  • List of Countries
  • For 7 days
  • Water Temperature
  • Satellite Maps
  • Weather Map
  • News
  • Weather Widgets
  • user-avatar
    Login

    Hourly Weather Tergachi

    Today, 15 December, Saturday

    Time Temperature Precipitation Wind Pressure Humidity
    00:00 +5°C° 0 mm 2 mps 701 mmHg 31%
    01:00 +5°C° 0 mm 2 mps 701 mmHg 32%
    02:00 +5°C° 0 mm 2 mps 701 mmHg 32%
    03:00 +6°C° 0 mm 1 mps 701 mmHg 33%
    04:00 +5°C° 0 mm 1 mps 701 mmHg 33%
    05:00 +5°C° 0 mm 2 mps 700 mmHg 33%
    06:00 +4°C° 0 mm 2 mps 700 mmHg 34%
    07:00 +4°C° 0 mm 2 mps 700 mmHg 34%
    08:00 +4°C° 0 mm 2 mps 700 mmHg 35%
    09:00 +6°C° 0 mm 2 mps 700 mmHg 32%
    10:00 +9°C° 0 mm 1 mps 700 mmHg 29%
    11:00 +11°C° 0 mm 1 mps 700 mmHg 26%
    12:00 +11°C° 0 mm 1 mps 700 mmHg 25%
    13:00 +12°C° 0 mm 1 mps 700 mmHg 25%
    14:00 +13°C° 0 mm 1 mps 699 mmHg 24%
    15:00 +11°C° 0 mm 1 mps 699 mmHg 27%
    16:00 +10°C° 0 mm 1 mps 699 mmHg 29%
    17:00 +8°C° 0 mm 1 mps 699 mmHg 32%
    18:00 +8°C° 0 mm 1 mps 699 mmHg 32%
    19:00 +8°C° 0 mm 1 mps 699 mmHg 33%
    20:00 +8°C° 0 mm 1 mps 699 mmHg 33%
    21:00 +7°C° 0 mm 1 mps 699 mmHg 33%
    22:00 +7°C° 0 mm 1 mps 698 mmHg 34%
    23:00 +7°C° 0 mm 1 mps 698 mmHg 34%

    Tomorrow, 16 December, Sunday

    Time Temperature Precipitation Wind Pressure Humidity
    00:00 +7°C° 0 mm 1 mps 699 mmHg 34%
    01:00 +7°C° 0 mm 1 mps 699 mmHg 34%
    02:00 +6°C° 0 mm 1 mps 699 mmHg 35%
    03:00 +6°C° 0 mm 1 mps 700 mmHg 36%
    04:00 +6°C° 0 mm 1 mps 700 mmHg 37%
    05:00 +6°C° 0 mm 1 mps 700 mmHg 38%
    06:00 +5°C° 0 mm 1 mps 701 mmHg 41%
    07:00 +4°C° 0 mm 2 mps 701 mmHg 43%
    08:00 +4°C° 0 mm 2 mps 702 mmHg 46%
    09:00 +5°C° 0.1 mm 2 mps 702 mmHg 46%
    10:00 +6°C° 0.1 mm 2 mps 703 mmHg 46%
    11:00 +6°C° 0.1 mm 2 mps 703 mmHg 46%
    12:00 +6°C° 0 mm 2 mps 703 mmHg 46%
    13:00 +7°C° 0 mm 2 mps 704 mmHg 46%
    14:00 +7°C° 0 mm 2 mps 704 mmHg 46%
    15:00 +6°C° 0 mm 2 mps 704 mmHg 50%
    16:00 +5°C° 0 mm 2 mps 705 mmHg 55%
    17:00 +5°C° 0 mm 1 mps 705 mmHg 59%
    18:00 +4°C° 0 mm 2 mps 705 mmHg 60%
    19:00 +4°C° 0 mm 2 mps 705 mmHg 60%
    20:00 +4°C° 0 mm 2 mps 704 mmHg 61%
    21:00 +4°C° 0 mm 2 mps 704 mmHg 60%
    22:00 +3°C° 0 mm 2 mps 704 mmHg 60%
    23:00 +3°C° 0 mm 2 mps 703 mmHg 59%

    Day after tomorrow, 17 December, Monday

    Time Temperature Precipitation Wind Pressure Humidity
    00:00 +3°C° 0 mm 2 mps 703 mmHg 57%
    01:00 +3°C° 0 mm 2 mps 702 mmHg 56%
    02:00 +3°C° 0 mm 2 mps 702 mmHg 54%
    03:00 +3°C° 0 mm 2 mps 702 mmHg 53%
    04:00 +3°C° 0 mm 2 mps 701 mmHg 52%
    05:00 +4°C° 0 mm 1 mps 701 mmHg 51%
    06:00 +4°C° 0 mm 1 mps 701 mmHg 50%
    07:00 +4°C° 0 mm 1 mps 701 mmHg 50%
    08:00 +4°C° 0 mm 1 mps 701 mmHg 49%
    09:00 +6°C° 0 mm 1 mps 701 mmHg 46%
    10:00 +7°C° 0 mm 1 mps 700 mmHg 43%
    11:00 +8°C° 0 mm 1 mps 700 mmHg 40%
    12:00 +8°C° 0 mm 1 mps 700 mmHg 40%
    13:00 +9°C° 0 mm 1 mps 700 mmHg 39%
    14:00 +9°C° 0 mm 1 mps 699 mmHg 39%
    15:00 +9°C° 0 mm 1 mps 699 mmHg 43%
    16:00 +8°C° 0 mm 1 mps 699 mmHg 46%
    17:00 +7°C° 0 mm 1 mps 699 mmHg 49%
    18:00 +7°C° 0.1 mm 1 mps 700 mmHg 51%
    19:00 +7°C° 0.1 mm 1 mps 700 mmHg 52%
    20:00 +7°C° 0.1 mm 1 mps 700 mmHg 53%
    21:00 +7°C° 0.2 mm 1 mps 700 mmHg 55%
    22:00 +7°C° 0.2 mm 1 mps 700 mmHg 57%
    23:00 +6°C° 0.2 mm 1 mps 700 mmHg 59%

    18 December, Tuesday

    Time Temperature Precipitation Wind Pressure Humidity
    00:00 +6°C° 0.3 mm 1 mps 699 mmHg 61%
    01:00 +6°C° 0.3 mm 1 mps 699 mmHg 64%
    02:00 +5°C° 0.3 mm 2 mps 699 mmHg 67%
    03:00 +6°C° 0.3 mm 1 mps 698 mmHg 68%
    04:00 +6°C° 0.3 mm 1 mps 698 mmHg 70%
    05:00 +6°C° 0.3 mm 1 mps 698 mmHg 72%
    06:00 +6°C° 0.2 mm 1 mps 698 mmHg 73%
    07:00 +5°C° 0.2 mm 1 mps 698 mmHg 74%
    08:00 +5°C° 0.2 mm 1 mps 698 mmHg 74%
    09:00 +6°C° 0.1 mm 1 mps 698 mmHg 72%
    10:00 +5°C° 0.1 mm 2 mps 698 mmHg 70%
    11:00 +6°C° 0.1 mm 2 mps 699 mmHg 68%
    12:00 +6°C° 0 mm 2 mps 699 mmHg 65%
    13:00 +6°C° 0 mm 2 mps 699 mmHg 63%
    14:00 +7°C° 0 mm 2 mps 699 mmHg 61%
    15:00 +6°C° 0 mm 2 mps 699 mmHg 64%
    16:00 +5°C° 0 mm 2 mps 699 mmHg 68%
    17:00 +4°C° 0 mm 2 mps 699 mmHg 72%
    18:00 +4°C° 0 mm 2 mps 699 mmHg 71%
    19:00 +4°C° 0 mm 2 mps 699 mmHg 71%
    20:00 +4°C° 0 mm 2 mps 699 mmHg 70%
    21:00 +3°C° 0.1 mm 2 mps 699 mmHg 70%
    22:00 +3°C° 0.1 mm 2 mps 699 mmHg 69%
    23:00 +4°C° 0.1 mm 1 mps 699 mmHg 68%

    19 December, Wednesday

    Time Temperature Precipitation Wind Pressure Humidity
    00:00 +4°C° 0.1 mm 1 mps 698 mmHg 69%
    01:00 +4°C° 0.1 mm 1 mps 698 mmHg 69%
    02:00 +4°C° 0.1 mm 1 mps 698 mmHg 70%
    03:00 +4°C° 0.1 mm 1 mps 698 mmHg 71%
    04:00 +4°C° 0.1 mm 1 mps 697 mmHg 72%
    05:00 +4°C° 0.1 mm 1 mps 697 mmHg 72%
    06:00 +4°C° 0.1 mm 1 mps 697 mmHg 73%
    07:00 +4°C° 0.1 mm 1 mps 697 mmHg 73%
    08:00 +4°C° 0.1 mm 1 mps 697 mmHg 74%
    09:00 +5°C° 0.1 mm 1 mps 697 mmHg 71%
    10:00 +5°C° 0.1 mm 1 mps 697 mmHg 69%
    11:00 +6°C° 0.1 mm 1 mps 697 mmHg 66%
    12:00 +6°C° 0.1 mm 1 mps 697 mmHg 67%
    13:00 +7°C° 0.1 mm 1 mps 697 mmHg 68%
    14:00 +7°C° 0.1 mm 1 mps 697 mmHg 69%
    15:00 +6°C° 0.1 mm 1 mps 697 mmHg 72%
    16:00 +6°C° 0.1 mm 1 mps 697 mmHg 75%
    17:00 +6°C° 0.1 mm 1 mps 698 mmHg 78%
    18:00 +5°C° 0.1 mm 1 mps 698 mmHg 78%
    19:00 +5°C° 0.1 mm 1 mps 698 mmHg 78%
    20:00 +5°C° 0.1 mm 1 mps 699 mmHg 78%
    21:00 +5°C° 0.1 mm 1 mps 699 mmHg 79%
    22:00 +4°C° 0.1 mm 0 mps 699 mmHg 79%
    23:00 +4°C° 0.1 mm 0 mps 699 mmHg 79%

    20 December, Thursday

    Time Temperature Precipitation Wind Pressure Humidity
    00:00 +4°C° 0.2 mm 0 mps 699 mmHg 81%
    01:00 +5°C° 0.2 mm 1 mps 699 mmHg 82%
    02:00 +5°C° 0.2 mm 1 mps 699 mmHg 84%
    03:00 +4°C° 0.2 mm 1 mps 699 mmHg 85%
    04:00 +3°C° 0.2 mm 0 mps 699 mmHg 87%
    05:00 +3°C° 0.2 mm 0 mps 699 mmHg 88%
    06:00 +3°C° 0.2 mm 0 mps 700 mmHg 89%
    07:00 +3°C° 0.2 mm 0 mps 700 mmHg 90%
    08:00 +3°C° 0.2 mm 0 mps 700 mmHg 90%
    09:00 +4°C° 0.2 mm 0 mps 700 mmHg 89%
    10:00 +4°C° 0.2 mm 0 mps 700 mmHg 87%
    11:00 +5°C° 0.2 mm 1 mps 700 mmHg 85%
    12:00 +6°C° 0.2 mm 1 mps 700 mmHg 84%
    13:00 +6°C° 0.2 mm 1 mps 700 mmHg 84%
    14:00 +6°C° 0.2 mm 1 mps 700 mmHg 83%
    15:00 +6°C° 0.2 mm 1 mps 700 mmHg 85%
    16:00 +6°C° 0.2 mm 1 mps 700 mmHg 87%
    17:00 +5°C° 0.2 mm 1 mps 701 mmHg 88%
    18:00 +5°C° 0.3 mm 1 mps 701 mmHg 89%
    19:00 +5°C° 0.3 mm 1 mps 701 mmHg 90%
    20:00 +5°C° 0.3 mm 1 mps 701 mmHg 91%
    21:00 +5°C° 0.3 mm 1 mps 700 mmHg 92%
    22:00 +4°C° 0.3 mm 1 mps 700 mmHg 92%
    23:00 +3°C° 0.3 mm 0 mps 700 mmHg 93%
    Show more